Skip Page Navigation
NASA JPL Caltech
NASA Logo - Jet Propulsion Laboratory + View the NASA Portal
+ Center for Near-Earth Object Studies
JPL Home Earth Solar System Stars & Galaxies Technology
JPL Solar System Dynamics
BODIES ORBITS EPHEMERIDES TOOLS PHYSICAL DATA DISCOVERY FAQ SITE MAP
JPL Small-Body Database Browser
Search: [ help ]  
357792 (2005 TX24)
Classification: Main-belt Asteroid          SPK-ID: 2357792
Ephemeris | Orbit Diagram | Orbital Elements | Mission Design | Physical Parameters | Discovery Circumstances | Close-Approach Data ]

[ show orbit diagram ]
Orbital Elements at Epoch 2459000.5 (2020-May-31.0) TDB
Reference: JPL 10 (heliocentric ecliptic J2000)
 Element Value Uncertainty (1-sigma)   Units 
e .1183347944202729 7.1218e-08  
a 3.120338464539372 4.1809e-08 au
q 2.751093853816435 2.1788e-07 au
i 4.051581936586153 7.5737e-06 deg
node 41.52436751111622 0.00010408 deg
peri 115.3752848059247 0.00010994 deg
M 128.8548786317349 3.2129e-05 deg
tp 2458279.891551796052
(2018-Jun-10.39155180)
0.00018053 TDB
period 2013.265187225362
5.51
4.0463e-05
1.108e-07
d
yr
n .1788139994096575 3.5939e-09 deg/d
Q 3.489583075262308 4.6757e-08 au
  Orbit Determination Parameters
   # obs. used (total)      126  
   data-arc span      6300 days (17.25 yr)  
   first obs. used      2002-03-10  
   last obs. used      2019-06-09  
   planetary ephem.      DE431  
   SB-pert. ephem.      SB431-N16  
   condition code      0  
   norm. resid. RMS      .56589  
   source      ORB  
   producer      Otto Matic  
   solution date      2019-Sep-24 06:43:06  

Additional Information
 Earth MOID = 1.76354 au 
 Jupiter MOID = 1.50155 au 
 T_jup = 3.202 
[ show covariance matrix ]

Ephemeris | Orbit Diagram | Orbital Elements | Mission Design | Physical Parameters | Discovery Circumstances | Close-Approach Data ]

Physical Parameter Table
Parameter Symbol Value Units Sigma Reference Notes
absolute magnitude H 16.3   n/a MPO437511  

357792 (2005 TX24)          Discovered 2005-Oct-01 by Mt. Lemmon Survey at Mount Lemmon
Reference: 20130327/Numbers.arcLast Updated: 2013-03-29

[ show close-approach data ]
Ephemeris | Orbit Diagram | Orbital Elements | Mission Design | Physical Parameters | Discovery Circumstances | Close-Approach Data ]
ABOUT SSD CREDITS/AWARDS PRIVACY/COPYRIGHT GLOSSARY LINKS
FirstGov 2020-Aug-05 02:38 UT
(server date/time)  
NASA Home Page
Site Manager:   Ryan S. Park
Webmaster  Alan B. Chamberlin